[[{"header":{"parameterUnit":"m.s-1","parameterCategory":1,"la1":30.2991,"la2":30.254,"lo1":-89.0895,"lo2":-89.0444,"dy":0.0017,"dx":0.0017,"nx":28,"ny":28,"refTime":"2024-11-28T09:00:00:Z","depth":0,"parameterNumber":2,"parameterNumberName":"U-component_of_WINDS"},"data":[0,0,0,0,0,0,0,0,0,0,0,0,0,0,0,0,0,0,0,0,0,0,0,0,0,0,0,0,0,0,0,0,0,0,0,0,0,0,0,0,0,0,0,0,0,0,0,0,0,0,0,0,0,0,0,0,0,0,-2.7916,-2.7916,0,-2.7982,-2.7983,-2.7984,-2.7885,-2.7881,-2.7878,-2.7875,-2.7944,-2.7949,-2.7954,0,0,0,0,0,0,0,0,0,0,0,0,0,-2.7701,-2.7706,-2.7915,-2.7916,-2.7917,-2.7982,-2.7983,-2.7984,-2.7886,-2.7881,-2.7877,-2.7873,-2.7942,-2.7948,-2.7954,0,0,0,0,0,0,0,0,0,0,0,0,0,-2.7784,-2.7707,-2.7915,-2.7876,-2.7873,-2.7982,-2.7983,-2.7984,-2.7886,-2.7881,-2.7876,-2.7871,-2.794,-2.7947,-2.7955,-2.8106,0,0,-2.7978,-2.7981,0,0,0,0,0,0,0,0,-2.7779,-2.7792,-2.7881,-2.7879,-2.7876,-2.792,-2.7933,-2.8025,-2.7888,-2.7881,-2.7875,-2.7869,-2.794,-2.7947,-2.7971,-2.8109,-2.8112,-2.7979,-2.7983,-2.7987,-2.7989,0,0,0,0,0,0,0,-2.7774,-2.7789,-2.7942,-2.7882,-2.7879,-2.7854,-2.786,-2.795,-2.7939,-2.7882,-2.7874,-2.7884,-2.7938,-2.7964,-2.7972,-2.8113,-2.7979,-2.7985,-2.799,-2.7993,-2.8377,-2.8382,0,0,0,0,0,0,-2.7773,-2.7784,-2.794,-2.7944,-2.7814,-2.7862,-2.7869,-2.7911,-2.7938,-2.7937,-2.7888,-2.7879,-2.7954,-2.7963,-2.7974,-2.8153,-2.7987,-2.7994,-2.7998,-2.8371,-2.8378,-2.8384,0,0,0,0,0,0,-2.7769,-2.7788,-2.7937,-2.7862,-2.7879,-2.7872,-2.792,-2.7915,-2.7942,-2.7943,-2.794,-2.7917,-2.795,-2.7964,-2.8074,-2.8154,-2.7997,-2.8004,-2.8365,-2.8373,-2.8381,-2.8511,0,0,0,0,0,0,-2.7763,-2.7787,-2.7845,-2.7864,-2.7884,-2.8036,-2.7924,-2.792,-2.7955,-2.7944,-2.797,-2.7969,-2.7947,-2.8063,-2.8081,-2.8161,-2.801,-2.8358,-2.8369,-2.8379,-2.85,-2.8523,-2.8543,0,0,0,0,0,-2.7756,-2.7879,-2.7848,-2.7868,-2.7956,-2.8041,-2.8052,-2.8024,-2.7962,-2.802,-2.802,-2.7968,-2.8141,-2.8075,-2.8095,-2.8179,-2.8352,-2.8365,-2.8378,-2.849,-2.8519,-2.8542,0,0,0,0,0,0,-2.787,-2.7881,-2.7847,-2.798,-2.8011,-2.8024,-2.8097,-2.8056,-2.8104,-2.8092,-2.8055,-2.8061,-2.818,-2.8189,-2.8115,-2.8325,-2.8236,-2.8254,-2.8315,-2.8342,-2.8363,-2.8359,-2.8016,0,0,0,0,0,-2.791,-2.7979,-2.7984,-2.8102,-2.8118,-2.8105,-2.8141,-2.8117,-2.8147,-2.8159,-2.8168,-2.8199,-2.8259,-2.8301,-2.8357,-2.85,-2.8504,-2.8567,-2.8588,-2.8606,-2.8622,-2.8697,-2.8725,-2.8426,-2.8426,-2.8426,0,0,-2.7995,-2.801,-2.8055,-2.8125,-2.8145,-2.8217,-2.8117,-2.8197,-2.8249,-2.8171,-2.8276,-2.8283,-2.8315,-2.8442,-2.8498,-2.8454,-2.8705,-2.8622,-2.8636,-2.8643,-2.8713,-2.8742,-2.8767,-2.8435,-2.8433,-2.8432,0,0,-2.8186,-2.8204,-2.8304,-2.8326,-2.8358,-2.8348,-2.8371,-2.8391,-2.8393,-2.8497,-2.844,-2.8501,-2.8607,-2.8632,-2.8659,-2.8857,-2.8811,-2.8876,-2.899,-2.9064,-2.9087,-2.9108,-2.9179,-2.9205,-2.8892,-2.8892,-2.8892,0,-2.8288,-2.8394,-2.836,-2.8444,-2.8476,-2.8407,-2.8507,-2.853,-2.8579,-2.8603,-2.8552,-2.8683,-2.87,-2.8831,-2.8879,-2.8903,-2.8929,-2.8874,-2.9087,-2.9107,-2.9126,-2.9194,-2.922,-2.89,-2.8899,-2.8898,-2.8897,0,-2.8517,-2.8591,-2.8667,-2.8716,-2.8756,-2.8848,-2.8827,-2.8872,-2.8843,-2.8838,-2.8945,-2.8962,-2.902,-2.9049,-2.9022,-2.9176,-2.9148,-2.9093,-2.9003,-2.9163,-2.9226,-2.9251,-2.8911,-2.8908,-2.8906,-2.8904,0,0,-2.8785,-2.8812,-2.8841,-2.8862,-2.8891,-2.8947,-2.9035,-2.9091,-2.913,-2.9165,-2.9238,-2.9328,-2.9277,-2.9307,-2.9282,-2.9347,-2.9503,-2.9283,-2.9283,-2.9324,-2.9674,-2.9716,-2.9747,-2.9471,-2.9476,-2.948,-2.9671,0,-2.8977,-2.9129,-2.91,-2.9248,-2.9315,-2.925,-2.9326,-2.9352,-2.9349,-2.9405,-2.9401,-2.9466,-2.9393,-2.9411,-2.9472,-2.9471,-2.9573,-2.9456,-2.9539,-2.9542,-2.9535,-2.9779,-2.9825,-3.0005,-2.9695,-2.97,-2.9703,0,-2.9221,-2.9265,-2.942,-2.9437,-2.9464,-2.9534,-2.9582,-2.9637,-2.9664,-2.9657,-2.969,-2.9652,-2.9738,-2.9646,-2.9764,-2.9686,-2.9717,-2.9722,-2.9728,-2.9736,-2.9634,-2.9795,-3.0062,-3.009,-2.9741,-2.9738,-2.9735,0,-2.9402,-2.95,-2.9605,-2.9625,-2.9647,-2.9697,-2.9709,-2.973,-2.9766,-2.9808,-2.983,-2.9882,-2.9911,-2.9951,-2.9928,-2.9863,-3.005,-2.9956,-3.0047,-3.0048,-3.0092,-3.009,-3.0369,-3.011,-3.0109,-3.0109,-3.0108,0,-2.962,-2.9718,-2.9687,-2.9752,-2.9859,-2.9823,-2.993,-2.9933,-2.9953,-3.0017,-2.9962,-3.0024,-2.9988,-3.0046,-3.0028,-3.0129,-3.0142,-3.0139,-3.0133,-3.0145,-3.0145,-3.0166,-3.0154,-3.0116,-3.0114,-3.0113,-3.0112,0,-2.9842,-2.9825,-2.9935,-2.9946,-2.9951,-3.003,-3.0039,-3.0099,-3.0091,-3.0172,-3.0189,-3.0177,-3.0242,-3.0222,-3.0293,-3.028,-3.0408,-3.0386,-3.04,-3.0395,-3.0487,-3.0479,-3.0791,-3.083,-3.0545,-3.0548,-3.055,0,-2.9983,-3.0056,-3.0075,-3.0114,-3.013,-3.0193,-3.0228,-3.0195,-3.0234,-3.0269,-3.0325,-3.0386,-3.0432,-3.054,-3.0537,-3.059,-3.0569,-3.0674,-3.0577,-3.0586,-3.0572,-3.0568,-3.0575,-3.0695,-3.0698,-3.0701,-3.0703,0,-3.0236,-3.0223,-3.0276,-3.0327,-3.037,-3.0408,-3.0441,-3.0476,-3.0445,-3.0491,-3.0557,-3.0593,-3.0664,-3.0725,-3.0773,-3.0784,-3.0739,-3.0733,-3.0757,-3.0771,-3.0776,-3.0775,-3.0454,-3.0727,-3.0724,-3.0722,-3.0721,-3.072,-3.0422,-3.0484,-3.0506,-3.0567,-3.0588,-3.062,-3.0677,-3.0675,-3.0729,-3.0785,-3.0761,-3.0837,-3.086,-3.092,-3.0937,-3.0995,-3.0955,-3.099,-3.0999,-3.1008,-3.1021,-3.0765,-3.1004,-3.1003,-3.1002,-3.1002,-3.1001,0,-3.0672,-3.0683,-3.0739,-3.0787,-3.0834,-3.0786,-3.0819,-3.0862,-3.093,-3.0955,-3.1002,-3.1077,-3.1135,-3.1135,-3.1189,-3.1235,-3.1216,-3.1251,-3.1248,-3.1251,-3.1053,-3.1028,-3.1266,-3.1266,-3.1265,-3.1265,-3.1265,-3.1265,-3.0808,-3.0911,-3.09,-3.1012,-3.1021,-3.1095,-3.1119,-3.1147,-3.1167,-3.1253,-3.1301,-3.13,-3.1316,-3.1369,-3.142,-3.1418,-3.1441,-3.1484,-3.1475,-3.1291,-3.1265,-3.124,-3.1216,-3.1489,-3.1489,-3.1668,-3.1669,-3.1671]},{"header":{"parameterUnit":"m.s-1","parameterCategory":1,"la1":30.2991,"la2":30.254,"lo1":-89.0895,"lo2":-89.0444,"dy":0.0017,"dx":0.0017,"nx":28,"ny":28,"refTime":"2024-11-28T09:00:00:Z","depth":0,"parameterNumber":3,"parameterNumberName":"V-component_of_WINDS"},"data":[0,0,0,0,0,0,0,0,0,0,0,0,0,0,0,0,0,0,0,0,0,0,0,0,0,0,0,0,0,0,0,0,0,0,0,0,0,0,0,0,0,0,0,0,0,0,0,0,0,0,0,0,0,0,0,0,0,0,-6.3712,-6.3714,0,-6.3827,-6.3828,-6.383,-6.3741,-6.3738,-6.3734,-6.373,-6.3842,-6.3849,-6.3855,0,0,0,0,0,0,0,0,0,0,0,0,0,-6.341,-6.3416,-6.3712,-6.3714,-6.3715,-6.3827,-6.3829,-6.383,-6.3742,-6.3738,-6.3733,-6.3729,-6.384,-6.3848,-6.3856,0,0,0,0,0,0,0,0,0,0,0,0,0,-6.3534,-6.3418,-6.3712,-6.3685,-6.3684,-6.3827,-6.3829,-6.383,-6.3743,-6.3737,-6.3732,-6.3726,-6.3837,-6.3847,-6.3857,-6.4031,0,0,-6.3886,-6.3891,0,0,0,0,0,0,0,0,-6.3527,-6.3545,-6.3687,-6.3687,-6.3686,-6.3764,-6.3763,-6.3897,-6.3745,-6.372,-6.373,-6.3724,-6.382,-6.3831,-6.3865,-6.4036,-6.4041,-6.3887,-6.3893,-6.3897,-6.39,0,0,0,0,0,0,0,-6.3519,-6.354,-6.3757,-6.369,-6.3689,-6.3665,-6.3676,-6.3788,-6.3801,-6.3722,-6.3716,-6.3731,-6.3819,-6.3856,-6.3867,-6.4042,-6.3887,-6.3896,-6.3902,-6.3906,-6.4359,-6.4364,0,0,0,0,0,0,-6.3514,-6.3533,-6.3754,-6.3761,-6.3591,-6.3675,-6.3687,-6.3745,-6.3799,-6.3802,-6.3736,-6.3727,-6.3842,-6.3856,-6.3871,-6.4076,-6.3897,-6.3907,-6.3912,-6.4352,-6.436,-6.4367,0,0,0,0,0,0,-6.3508,-6.3534,-6.3749,-6.3646,-6.3671,-6.3686,-6.3751,-6.375,-6.3787,-6.381,-6.3811,-6.3772,-6.3838,-6.3857,-6.3991,-6.4079,-6.3911,-6.392,-6.4345,-6.4355,-6.4363,-6.4491,0,0,0,0,0,0,-6.3499,-6.3533,-6.3601,-6.3648,-6.3677,-6.3871,-6.3757,-6.3756,-6.3805,-6.3794,-6.3844,-6.3847,-6.3835,-6.3977,-6.4001,-6.4089,-6.3927,-6.4337,-6.4349,-6.436,-6.4479,-6.4503,-6.4524,0,0,0,0,0,-6.3489,-6.3631,-6.3605,-6.3632,-6.3763,-6.3876,-6.3892,-6.3878,-6.3812,-6.388,-6.3894,-6.3845,-6.4066,-6.3992,-6.4018,-6.4111,-6.4332,-6.4346,-6.4359,-6.4468,-6.4498,-6.4523,0,0,0,0,0,0,-6.3593,-6.3637,-6.3608,-6.3771,-6.3821,-6.3861,-6.3946,-6.391,-6.3978,-6.3965,-6.3942,-6.3954,-6.4095,-6.4116,-6.4033,-6.428,-6.4188,-6.4208,-6.4262,-6.429,-6.4313,-6.4304,-6.3936,0,0,0,0,0,-6.3635,-6.3725,-6.3758,-6.3898,-6.3925,-6.3931,-6.398,-6.3964,-6.4014,-6.4034,-6.4058,-6.4106,-6.4186,-6.4239,-6.4314,-6.4481,-6.4489,-6.4557,-6.458,-6.4598,-6.4616,-6.4703,-6.4733,-6.4412,-6.4412,-6.4412,0,0,-6.3722,-6.3758,-6.3816,-6.392,-6.3957,-6.4048,-6.3949,-6.4051,-6.4117,-6.4049,-6.4177,-6.4197,-6.4249,-6.44,-6.4467,-6.4421,-6.4706,-6.4616,-6.4631,-6.4638,-6.472,-6.475,-6.4777,-6.4422,-6.442,-6.4418,0,0,-6.3928,-6.3965,-6.4085,-6.4124,-6.4181,-6.4184,-6.4213,-6.4259,-6.4269,-6.4398,-6.4348,-6.4426,-6.4565,-6.4603,-6.4641,-6.486,-6.4816,-6.4884,-6.5003,-6.5088,-6.5113,-6.5135,-6.5212,-6.5239,-6.4901,-6.4902,-6.4902,0,-6.4029,-6.4167,-6.4151,-6.4256,-6.4302,-6.4245,-6.4365,-6.4402,-6.448,-6.4512,-6.446,-6.4632,-6.4663,-6.4821,-6.4875,-6.4908,-6.4938,-6.4878,-6.5111,-6.5133,-6.5154,-6.5226,-6.5255,-6.491,-6.4909,-6.4908,-6.4907,0,-6.4287,-6.4384,-6.4473,-6.4552,-6.4608,-6.472,-6.4717,-6.4775,-6.4755,-6.4762,-6.4892,-6.4928,-6.5008,-6.5044,-6.5025,-6.5199,-6.5169,-6.5115,-6.5021,-6.5193,-6.526,-6.5288,-6.4921,-6.4918,-6.4916,-6.4914,0,0,-6.4563,-6.463,-6.4663,-6.4697,-6.4755,-6.4828,-6.4935,-6.5015,-6.5065,-6.512,-6.5208,-6.5326,-6.5276,-6.5319,-6.5302,-6.5378,-6.5546,-6.5314,-6.5314,-6.5354,-6.5738,-6.5778,-6.581,-6.5518,-6.5523,-6.5527,-6.5733,0,-6.4771,-6.4961,-6.4948,-6.5126,-6.5213,-6.5159,-6.5253,-6.5297,-6.5307,-6.538,-6.5389,-6.5473,-6.5401,-6.5426,-6.5498,-6.5511,-6.5622,-6.5495,-6.5597,-6.5601,-6.5585,-6.5846,-6.5888,-6.6081,-6.5759,-6.5764,-6.5767,0,-6.5039,-6.5104,-6.5292,-6.5335,-6.5371,-6.5456,-6.5526,-6.5598,-6.5646,-6.5647,-6.5695,-6.5665,-6.5771,-6.5675,-6.5819,-6.5733,-6.5773,-6.5786,-6.5792,-6.5801,-6.5694,-6.586,-6.6142,-6.6171,-6.5809,-6.5805,-6.5802,0,-6.5219,-6.5354,-6.5483,-6.5514,-6.5568,-6.5628,-6.5653,-6.5695,-6.5744,-6.5805,-6.5835,-6.5907,-6.5947,-6.6002,-6.5992,-6.5923,-6.6138,-6.6042,-6.6139,-6.614,-6.6187,-6.6184,-6.6479,-6.6215,-6.6214,-6.6214,-6.6213,0,-6.5452,-6.5568,-6.5565,-6.5644,-6.5771,-6.5754,-6.588,-6.5897,-6.5935,-6.6015,-6.5972,-6.6047,-6.6029,-6.6103,-6.6095,-6.6214,-6.6233,-6.6235,-6.6231,-6.6238,-6.6238,-6.6264,-6.625,-6.6222,-6.622,-6.6218,-6.6217,0,-6.5675,-6.5678,-6.5814,-6.5854,-6.5867,-6.5959,-6.5991,-6.6065,-6.607,-6.6171,-6.6194,-6.6202,-6.6286,-6.6282,-6.6377,-6.6371,-6.6518,-6.6499,-6.6502,-6.6498,-6.6596,-6.6586,-6.6917,-6.6958,-6.6669,-6.6672,-6.6674,0,-6.5823,-6.5911,-6.5961,-6.6012,-6.6041,-6.6124,-6.6173,-6.6158,-6.621,-6.627,-6.6336,-6.6417,-6.6481,-6.6617,-6.663,-6.6702,-6.6684,-6.6795,-6.6694,-6.6698,-6.6683,-6.6678,-6.6686,-6.6814,-6.6817,-6.682,-6.6822,0,-6.6085,-6.6081,-6.6155,-6.6229,-6.6289,-6.6346,-6.6398,-6.6441,-6.6432,-6.6492,-6.6579,-6.6628,-6.6725,-6.6805,-6.6873,-6.6896,-6.6857,-6.6854,-6.688,-6.6888,-6.6885,-6.6886,-6.6555,-6.6846,-6.6844,-6.6842,-6.6841,-6.684,-6.6274,-6.6349,-6.6395,-6.6478,-6.6516,-6.6565,-6.6635,-6.665,-6.6722,-6.6802,-6.6788,-6.6884,-6.6926,-6.7015,-6.7043,-6.7117,-6.7077,-6.7115,-6.7125,-6.7134,-6.7145,-6.6875,-6.7129,-6.7128,-6.7128,-6.7127,-6.7127,0,-6.6532,-6.6559,-6.6635,-6.671,-6.6774,-6.6734,-6.6788,-6.6844,-6.693,-6.6974,-6.7038,-6.7136,-6.7213,-6.7231,-6.7304,-6.7359,-6.7343,-6.7379,-6.7374,-6.7379,-6.7177,-6.7146,-6.739,-6.739,-6.739,-6.739,-6.739,-6.739,-6.6674,-6.6799,-6.68,-6.6942,-6.6967,-6.7063,-6.7097,-6.7141,-6.7176,-6.7288,-6.7353,-6.7365,-6.7398,-6.7472,-6.754,-6.7543,-6.7571,-6.7614,-6.761,-6.742,-6.7394,-6.7369,-6.734,-6.762,-6.7621,-6.7805,-6.7807,-6.7808]}]]